CAPE
1029 1566 1751 1454 1428 1438 1543 1452 1407 1406 1453 1413 1536 1483 1461 1407 1356 1349 1460 1529 1592 1705 1785 1800 1810 1781 1738 1685 1493 1344 1288 1202 1060 814 746 1089 1047 1056 1209 1372 1275 1255 1187 1053 1107 1266 1437 1487 1364 1224 1257 1146 1134 943 916 783 704 719 740 844 724 640 660 642 527 511 553 624 731 830 830 716 570 448 340 265 162 55 89 238 188 176 117 66 299
1112 1521 1857 1647 1344 1396 1613 1494 1483 1406 1420 1490 1562 1508 1411 1352 1300 1287 1273 1429 1456 1552 1568 1528 1563 1624 1594 1562 1443 1296 1202 1092 1144 1013 976 1008 1269 1406 1212 1043 1357 1308 973 926 1051 1143 1273 1339 1230 1210 1005 910 1017 1069 982 844 954 1116 1029 933 747 684 585 532 749 838 909 882 730 636 502 425 347 366 301 171 208 200 129 227 512 257 128 114 103
1304 1447 1913 1482 1450 1464 1598 1573 1612 1559 1380 1526 1521 1483 1403 1324 1354 1387 1356 1398 1437 1482 1433 1434 1566 1670 1638 1502 1373 1275 1144 1095 1038 891 714 739 983 1414 1398 1270 1296 1326 1178 1183 1245 1071 1156 1234 1261 1124 918 917 852 973 921 809 877 904 898 824 829 1204 1256 1176 1064 938 673 585 600 545 428 353 347 350 335 230 197 156 194 218 219 184 70 240 199
1248 1613 1854 1703 1418 1416 1563 1424 1518 1582 1506 1553 1570 1456 1413 1374 1406 1424 1455 1506 1436 1477 1485 1495 1572 1534 1408 1332 1356 1335 1238 1110 1021 950 838 983 696 1324 1284 1340 1268 1382 1129 858 1138 1119 1117 1264 1134 985 917 823 768 903 919 904 1194 1304 1284 839 888 1312 1183 1008 815 654 536 649 646 673 737 664 409 308 320 276 240 289 309 268 210 143 21 155 141
1199 1595 1765 1618 1681 1434 1509 1504 1534 1591 1512 1521 1509 1460 1440 1402 1420 1518 1522 1519 1513 1476 1516 1463 1361 1321 1296 1255 1242 1312 1283 1147 1057 1128 1254 1122 1142 1169 1211 1372 1365 1314 1134 1085 863 1110 1167 1059 823 836 788 786 811 917 995 1161 1381 1362 1383 1330 1342 1276 936 767 648 576 578 531 642 811 1237 995 667 346 364 356 318 260 207 177 287 146 78 103 219
1158 1605 1738 1538 1798 1559 1549 1572 1660 1663 1618 1504 1466 1458 1453 1484 1559 1629 1550 1477 1428 1381 1407 1381 1280 1270 1269 1240 1200 1157 1121 1081 1102 1176 1090 1053 1467 1371 1331 1397 1394 1349 1245 892 841 996 976 732 625 625 610 730 750 910 868 1117 1279 1357 1275 1376 1324 1159 938 719 708 780 647 653 742 998 1127 1092 736 365 255 208 222 204 230 306 252 190 97 61 186
1556 1565 1957 1754 1692 1687 1527 1643 1678 1704 1631 1594 1534 1485 1419 1495 1651 1680 1618 1524 1442 1388 1328 1296 1280 1252 1249 1259 1260 1257 1197 1153 1155 1303 1785 1837 1524 1336 1063 1155 1192 1130 1086 934 952 688 622 481 689 613 574 744 771 851 867 923 1007 1142 1174 1166 1038 875 715 695 632 688 627 796 942 1363 1238 1012 819 448 303 250 204 163 140 200 149 105 83 87 146
1448 1342 2297 1854 1373 1502 1688 1714 1720 1736 1750 1642 1642 1539 1483 1547 1618 1681 1763 1684 1460 1352 1291 1286 1289 1252 1330 1380 1279 1299 1253 1003 1402 1542 1442 1446 1518 1460 1249 1112 1094 1018 900 920 793 712 645 594 689 625 620 728 730 782 844 924 892 898 903 873 777 734 672 695 656 472 589 716 1057 1251 1342 1283 935 444 306 267 325 245 225 164 141 112 81 42 372
1198 1237 1418 2266 1950 1626 1637 1708 1661 1692 1820 1705 1623 1559 1569 1610 1632 1744 1826 1781 1439 1302 1265 1233 1366 1425 1453 1394 1281 1430 1326 1392 1428 1419 1485 1516 1477 1507 1506 1443 1348 1180 960 908 766 1034 671 583 682 613 698 784 787 820 872 840 816 777 771 764 758 718 573 588 447 431 561 812 933 1001 1230 1216 1049 599 428 504 354 188 104 104 146 87 51 70 94
1058 1200 1055 1556 1805 1601 1629 1578 1691 1809 1884 1712 1629 1570 1659 1658 1634 1745 1883 1873 1749 1612 1559 1581 1576 1561 1578 1589 1637 1629 1586 1460 1472 1508 1459 1556 1541 1457 1429 1244 1125 1040 890 777 728 954 919 900 881 868 967 916 832 836 805 955 910 829 741 653 646 754 716 557 354 390 603 789 824 1001 1006 1580 1032 630 428 386 184 14 138 186 213 116 111 14 82
1293 1202 1099 1245 1729 1530 1460 1544 1772 1803 1791 1711 1629 1782 1840 1776 1736 1828 1908 1863 1921 1777 1842 1788 1695 1639 1523 1488 1650 1558 1388 1493 1542 1494 1530 1533 1577 1455 1291 1185 1153 1025 904 784 719 652 796 1275 1084 982 942 914 909 907 886 751 715 611 572 622 654 570 510 495 391 690 856 823 922 797 777 722 548 548 293 202 98 41 57 60 56 39 22 5 19
1123 1217 1191 1314 1987 1541 1434 1484 1559 1722 1786 1783 1835 1830 1896 1846 1790 1925 2057 2003 1964 1877 1838 1939 1905 1766 1633 1575 1539 1545 1637 1606 1586 1576 1664 1600 1535 1533 1285 1192 1143 976 885 741 651 586 1186 1073 1061 1019 962 978 940 894 753 508 405 478 742 839 623 493 377 384 552 660 758 828 893 923 910 823 534 263 234 284 184 92 185 159 110 36 16 28 3
1037 1053 1418 1412 1864 1620 1584 1636 1623 1526 1877 1915 1885 1829 1891 1961 2023 2049 2173 2027 1942 2035 1965 1903 1863 1836 1704 1549 1468 1599 1700 1705 1762 1699 1703 1649 1585 1592 1470 1286 1134 990 842 739 637 1273 1188 1177 1083 1011 904 1056 892 808 498 251 245 411 583 755 689 575 390 425 504 533 747 780 678 802 663 654 686 334 343 307 224 163 54 54 37 25 2 4 46
982 1087 1256 1360 1539 1959 1581 1470 1457 1484 1445 1762 2003 1973 1924 2005 2083 2140 2010 1988 2055 2074 2045 2035 2032 1902 1821 1659 1576 1594 1656 1715 1696 1606 1729 1702 1542 1566 1580 1500 1303 1038 839 750 852 1558 1387 1164 1039 906 878 977 847 653 263 412 441 456 670 704 805 580 578 440 740 557 639 698 759 697 640 550 382 377 247 280 269 243 101 16 1 42 2 4 61
1088 1130 1110 1089 1612 1780 1817 1445 1403 1352 1294 1599 1974 1975 1980 2008 2093 2065 2076 2106 2161 2130 2071 2034 2053 1989 1846 1726 1643 1756 1787 1754 1735 1718 1676 1720 1631 1549 1496 1594 1462 1210 905 799 922 1311 1290 1112 982 1016 1052 1027 833 542 463 484 370 363 817 844 903 905 419 433 385 618 676 572 601 383 551 458 401 583 353 356 130 88 100 55 7 1 1 1 2
1196 1270 1232 1392 1483 1761 1988 1689 1439 1368 1469 1408 1522 2014 2113 2144 2122 2098 2154 2245 2229 2150 2150 2113 2045 2016 2032 1907 1806 1815 1701 1604 1629 1721 1694 1813 1752 1462 1416 1488 1527 1400 1204 1168 1206 1174 1195 1021 1116 1197 1141 999 792 515 473 395 399 692 711 915 1065 1023 726 816 654 715 787 680 583 665 499 427 474 412 498 341 206 107 30 1 1 0 0 0 1
1175 1100 1194 1393 1496 1478 1678 1770 1764 1514 1407 1470 1333 1830 2086 1874 2108 2134 2206 2235 2213 2254 2204 2148 2144 2062 2063 1995 1859 1803 1682 1541 1554 1613 1677 1884 1930 1404 1590 1438 1498 1519 1392 1375 1306 1188 1148 1173 1265 1283 1158 945 678 448 292 268 604 784 756 899 1094 1098 1027 768 520 714 892 724 618 767 809 518 659 472 453 276 108 53 3 3 2 4 1 0 0
1138 1020 1076 1393 1517 1413 1456 1464 2088 1940 1489 1402 1322 1292 1354 1300 1616 1638 1895 2078 2029 2278 2236 2147 2126 2156 2167 2112 1915 1871 1690 1588 1583 1616 1685 1878 1971 1702 1517 1463 1462 1566 1431 1366 1335 1288 1286 1290 1169 1118 999 849 549 443 379 666 778 826 566 946 1272 1155 923 519 543 620 713 687 787 765 850 825 570 421 339 253 118 39 22 5 1 0 0 0 0
1203 889 1007 1342 1466 1483 1644 1390 1754 1563 1564 1372 1300 1429 1230 1190 1092 1075 1254 1591 1606 2069 2152 2198 2082 1626 1647 1979 1954 1644 1599 1583 1632 1710 1855 1789 1994 1933 1722 1654 1519 1472 1541 1566 1517 1440 1302 1317 1191 1010 775 594 474 549 773 758 862 776 738 921 1102 1059 810 491 620 586 466 662 782 883 872 771 657 429 405 304 129 64 4 0 0 0 0 0 1
1296 1217 1299 1268 1200 1382 1531 1511 1904 1918 1766 1362 1358 1536 1416 1241 1120 920 910 1289 1469 1504 1778 1790 1479 1477 1431 1492 1551 1449 1343 1479 1394 1480 1658 1925 1927 1362 2086 1869 1596 1517 1509 1471 1467 1426 1285 1191 1070 809 759 924 654 760 933 818 734 830 786 883 1030 952 957 718 658 560 582 492 612 698 749 755 436 395 368 265 167 71 9 0 0 0 1 0 1
1110 1188 1100 1319 1165 1222 1385 1486 2185 2577 2430 1663 1522 1928 1520 1254 1263 1103 983 998 1383 1279 1269 1430 1394 1406 1377 1260 1294 1192 1471 1652 1602 1506 1305 1888 1905 1795 2019 2094 1788 1547 1399 1217 1260 1366 1247 1060 992 1005 871 917 978 789 694 672 626 861 1015 998 1045 1115 1030 890 946 700 582 513 465 524 620 665 465 396 325 248 64 80 15 0 0 0 0 0 1
1209 1119 1344 1366 1324 1182 1179 1560 1729 2285 2532 1778 2140 1992 1556 1566 1982 1330 1327 1041 1247 1209 1417 1962 1309 2116 1275 1170 1348 953 1093 1737 1755 934 1398 1159 1755 2066 2135 2133 2031 1700 1652 1484 1273 1161 1336 1130 954 941 846 785 688 21 150 320 396 803 1180 1102 1311 1128 1081 956 1079 569 642 687 661 835 773 558 537 495 298 226 154 57 13 1 0 0 0 0 1
1444 1357 1077 1222 1261 1246 1192 1363 1789 2364 2647 2384 1832 1854 1769 2071 2196 1800 1410 1276 1726 1732 2103 1498 1899 1720 1370 1219 1331 1127 1094 993 937 824 1107 1333 1875 1930 2095 2128 2048 1939 1667 1596 1478 1241 1183 1184 1017 850 758 151 106 64 201 162 383 240 946 1291 1052 937 1056 1032 1015 831 625 602 514 751 788 673 594 530 350 248 179 83 45 3 0 0 0 0 0
1409 1175 1023 991 1155 1027 1231 1228 1313 1656 2238 2492 2417 1636 2257 2369 2169 2012 1826 1779 2077 2027 2057 1729 1106 1156 978 1061 1571 1326 1047 1196 1132 902 728 1177 1282 1738 1596 1720 1897 1816 1892 1627 1573 1431 1386 1159 811 456 468 0 0 2 1 32 144 401 486 606 744 976 999 1053 1007 855 789 462 666 829 841 788 622 599 381 264 166 99 60 2 1 0 0 0 0
1402 1250 1077 1190 1240 1222 1385 1386 1303 1479 1439 2308 2567 2344 1680 1671 1626 2006 1958 1916 1965 1962 1942 1888 1598 1255 1364 1394 1402 1621 1232 1395 1246 1489 1435 1221 1033 1235 1531 1551 1214 1190 1681 611 468 667 1187 551 625 254 252 132 70 5 18 55 126 146 308 513 675 938 917 945 979 816 667 807 1059 976 919 878 814 704 366 303 136 110 63 2 3 2 0 0 0
1564 1494 1393 1357 1334 1268 1340 1339 1328 1360 1564 1715 1814 2336 2438 2322 2267 2181 2182 1946 1943 1866 1795 1856 1748 1969 1829 1638 1598 1531 1620 1240 985 892 903 1374 1640 1554 1314 1352 1407 1213 1104 613 329 500 268 263 482 453 362 206 123 64 17 82 100 99 151 313 553 903 749 773 834 875 766 847 1314 1012 1066 977 1043 653 488 320 227 70 52 3 3 2 0 0 0
1740 1628 1550 1572 1473 1510 1387 1335 1378 1465 1597 1594 1445 2072 2469 2371 2247 2214 2073 2051 2068 1958 1651 1169 1567 1968 1962 1864 1890 1690 1528 1478 1376 1308 1594 1696 1683 1672 1506 1402 1395 1183 1292 993 497 439 204 182 210 344 385 308 142 95 53 47 65 94 148 205 369 637 764 684 717 828 940 773 1366 988 967 1129 1130 965 494 298 262 156 53 26 5 3 0 0 0
1707 1743 1715 1725 1705 1569 1516 1472 1722 1703 1702 1520 1615 2361 2311 2425 2226 2046 2064 2135 2069 1912 1672 1860 1768 1796 1901 2000 1968 1584 1542 1534 1393 1500 1609 1871 1737 1625 1476 1408 1297 1219 1468 1157 782 211 174 200 180 165 264 170 98 76 42 4 39 48 151 182 323 449 667 584 572 650 867 923 1166 926 925 988 1221 1254 611 318 247 161 63 68 7 3 1 0 0
1802 1934 1760 1724 1768 1779 1826 1675 1768 1764 1721 1671 1610 1600 2177 2402 2442 2223 2164 1897 2121 2042 2021 2008 1889 1660 1753 1558 1681 1998 1684 1698 1561 1695 1856 2108 1901 1840 2062 2319 2179 1638 1437 1098 466 251 317 206 176 148 167 74 81 26 20 36 46 82 41 108 233 222 388 465 560 564 653 854 742 1081 930 1049 1152 1148 1221 432 366 232 143 83 17 8 1 0 0
1906 1978 1960 1789 1661 1644 1472 1417 1696 1348 1478 1499 1377 1500 1566 1576 2252 2402 2304 2089 2111 2128 2053 1846 1752 1675 1232 996 1024 1614 1865 1723 1598 1972 2059 1857 1935 2195 2157 1788 1810 2031 1556 1381 913 280 330 167 157 171 53 72 2 7 3 26 23 40 34 55 146 244 271 342 362 446 514 528 579 1161 634 1046 951 1120 1029 1287 408 358 278 153 55 7 0 0 0
1757 1906 1618 1645 1655 1430 1534 1454 1342 1755 1411 1298 1626 1730 1766 1670 1450 1830 2128 2148 2137 2137 1971 1867 1663 1153 1418 1476 1112 1173 1303 1306 1463 1437 1426 1703 1841 1948 1838 1602 1535 1810 1966 1424 1004 453 570 443 141 147 15 15 6 2 1 14 41 13 14 7 74 213 287 310 317 291 328 341 487 630 1046 973 1071 888 984 909 935 620 345 225 159 61 15 4 8
1917 1772 1725 1695 1674 1650 1379 1393 1336 1887 1741 1092 1530 1410 1414 1528 1664 1506 1592 1904 2246 2131 1911 1861 1833 1621 1775 1335 1145 1151 1033 1152 1359 1390 1394 1239 1296 1366 1484 1718 1693 1793 1686 1415 932 747 578 210 0 219 287 0 0 12 60 78 48 20 19 2 36 145 191 335 275 275 192 202 239 432 620 928 1035 935 830 793 938 792 582 301 265 173 97 57 49
2255 2121 2181 1964 1928 1989 1808 1831 1666 1728 1741 1649 1198 1175 1368 1132 1326 1370 1384 1669 1715 1797 1832 1871 1669 1548 1644 1385 1166 1163 909 992 1212 1412 1220 1319 1502 1586 1468 1313 1434 1537 906 922 900 1055 437 214 132 10 62 118 33 1 27 46 174 122 57 31 58 47 58 111 294 276 212 198 221 263 421 558 1228 887 776 936 668 724 889 472 363 183 182 103 75
2394 2430 2441 2230 2107 2134 2040 1818 1728 1734 1932 1624 1666 1088 1224 1189 1226 1222 1314 1381 1282 1394 1586 1747 1682 1669 1472 1237 1148 838 853 827 1187 1412 1421 1493 1297 1355 1321 1215 1224 930 826 1005 884 702 433 207 127 144 0 68 7 103 260 140 130 170 166 72 70 51 20 27 121 208 185 181 187 224 348 458 559 1063 949 993 944 726 520 828 600 404 226 144 92
2204 2508 2474 2183 2030 2046 1777 1608 1561 1933 1750 1716 1605 1162 1382 1031 822 921 1065 947 964 1114 1584 1612 1374 1136 1199 1211 1378 959 743 679 870 1503 1438 1420 1454 1680 1395 1221 1049 1217 897 936 658 414 676 425 222 337 163 154 33 115 110 462 787 573 367 452 194 42 39 26 29 96 132 245 242 230 271 368 483 677 885 1049 1069 736 622 605 872 703 342 189 155
2440 2640 2467 2235 1869 1747 1596 1575 1665 1681 1598 1468 1448 1266 1312 1137 817 941 806 1017 568 482 538 406 409 1066 1054 1197 930 1190 1256 1107 972 846 1344 1309 1499 1649 1657 1572 1174 1115 818 1032 1274 1072 955 937 549 631 617 70 161 154 61 160 520 916 808 682 518 359 185 86 56 64 83 100 173 201 307 407 472 656 653 853 1007 939 595 534 601 757 750 375 230
2736 2684 2394 2248 2017 1679 1695 1922 1851 1702 1471 1369 1305 1106 1089 1089 852 818 801 748 458 392 376 409 300 354 557 701 269 272 426 463 993 1143 1118 1151 1183 1293 1145 1082 1373 1365 1232 1298 1328 1297 1052 978 1274 1101 1202 862 50 98 145 123 350 256 446 881 718 497 348 184 114 74 7 81 112 144 205 312 362 470 633 627 839 919 794 603 533 518 660 673 541
2721 2776 2675 2371 2362 2056 1925 1964 1800 1430 1601 1456 1417 1331 1067 869 583 494 527 437 389 258 285 304 322 271 257 428 448 260 464 466 630 777 1032 1112 1179 899 828 998 1281 1403 1442 1348 1441 1246 1355 1173 1266 1317 1143 1148 836 734 95 350 373 55 68 114 506 1015 531 232 104 32 33 29 44 74 144 270 282 410 477 551 538 731 967 740 506 357 421 535 634
2229 2871 2802 2631 2422 2268 2092 1848 1666 1627 1493 1660 1629 1390 1156 875 695 424 404 211 199 341 285 252 182 202 322 337 353 448 313 289 476 668 659 662 785 687 696 857 1119 1312 1263 1217 1176 1155 1152 1050 1217 1399 1486 975 617 752 738 929 553 522 224 136 322 899 951 750 363 194 125 27 12 5 24 157 334 419 528 592 640 678 741 756 930 730 638 273 525
1794 2297 2703 2648 2468 2395 2157 2084 1826 1932 1942 1620 1002 684 452 283 318 171 70 13 139 225 254 232 129 89 188 206 238 175 153 150 121 100 255 301 409 442 576 576 548 916 1237 1210 1114 1060 1104 1209 1174 1217 1358 1305 1311 1625 1767 1101 1378 1068 910 888 638 366 686 682 429 203 130 150 78 28 6 20 100 293 320 353 349 477 547 614 679 627 691 621 296
1422 1819 2343 2553 2329 1707 1790 1809 1863 1810 1057 703 520 401 261 203 151 58 38 0 93 228 184 141 60 75 125 3 2 2 8 2 12 30 63 91 113 298 347 595 590 432 800 983 982 853 1094 1248 1246 1233 1134 1486 1523 1711 1708 1019 1382 1277 1305 1060 733 238 740 874 610 327 148 154 148 136 61 42 33 59 177 161 201 272 347 459 587 526 448 573 679
1113 1380 1817 1886 1858 1558 1608 1624 1522 1286 885 634 488 263 105 3 6 2 0 0 0 24 49 113 88 49 0 0 0 0 0 0 2 44 1 122 109 120 263 278 424 440 626 935 839 560 504 916 974 964 881 510 956 1145 1214 966 982 1322 937 821 879 466 378 895 898 319 126 72 193 197 198 196 36 68 69 129 185 220 206 319 441 381 390 428 457
1031 1117 1308 1439 1590 1743 1330 1805 1146 1004 918 785 474 212 98 155 11 2 0 44 115 71 12 47 38 1 0 0 0 0 0 0 6 3 58 112 89 76 74 230 208 293 357 614 897 867 758 840 898 1026 906 922 924 1086 795 952 1146 916 938 425 396 360 556 499 840 991 584 354 306 189 113 79 46 5 35 163 196 211 194 261 299 435 452 420 400
962 911 1113 1184 1456 1257 1216 1558 1189 1017 910 900 314 310 398 429 435 123 298 10 95 277 244 51 2 0 0 1 0 0 0 2 0 0 12 14 29 11 11 13 33 55 120 134 160 235 385 609 802 783 770 531 697 699 621 920 869 820 737 514 585 483 226 122 336 783 1057 774 724 661 416 206 110 42 96 181 232 285 314 347 454 547 644 554 441
997 766 1105 1021 1155 1079 1519 1532 1216 1109 949 800 673 781 498 400 455 475 235 231 105 62 25 6 4 4 0 0 0 4 2 0 0 1 1 16 13 12 13 18 15 16 2 4 15 39 34 155 246 483 719 585 582 600 470 631 605 880 559 471 402 359 519 586 742 719 597 580 686 559 554 654 584 381 429 431 474 595 610 575 620 652 709 892 758
953 865 1023 934 890 862 1330 1256 1099 1156 873 891 676 192 52 135 81 52 12 16 38 8 4 11 7 11 2 0 2 8 9 2 0 0 0 3 12 20 17 7 13 3 1 0 4 2 3 9 12 56 209 397 603 423 574 285 389 381 586 792 389 297 515 541 460 998 1090 606 518 522 336 574 642 631 663 582 567 521 612 1019 922 1041 1218 933 532
782 892 946 895 720 793 1178 1020 934 983 927 745 561 56 94 93 98 24 12 0 0 2 16 15 30 10 2 12 11 21 9 18 11 6 2 0 1 4 7 2 1 1 0 0 1 1 1 2 0 7 6 32 133 162 203 250 208 169 159 288 303 464 334 450 832 711 576 678 287 242 510 372 436 566 517 380 707 780 936 835 735 722 801 691 858
750 893 926 867 654 967 1076 890 695 688 858 699 402 71 55 85 53 26 2 0 0 20 29 26 32 12 7 5 15 22 13 12 8 3 3 3 4 1 0 0 0 0 0 0 0 0 0 0 0 2 1 2 6 8 18 28 68 110 92 120 174 179 222 490 235 275 684 455 323 353 356 408 484 503 499 512 732 928 943 1006 715 671 707 758 1012
802 960 813 806 816 1070 1008 880 646 658 871 725 319 192 69 75 39 12 0 0 23 12 0 3 12 16 20 4 1 3 17 7 0 0 0 0 0 0 0 0 0 0 0 0 0 0 0 0 0 0 0 0 2 4 1 4 9 14 20 21 27 50 121 184 119 144 200 243 542 316 432 275 160 653 496 391 489 690 629 521 518 317 241 745 862
990 866 716 782 922 1077 885 734 636 606 696 731 303 253 134 207 89 14 2 4 1 3 0 4 24 22 17 14 2 0 0 2 0 0 0 0 0 0 0 0 0 0 0 0 0 0 0 0 0 0 0 0 0 0 0 0 0 3 0 1 1 4 5 27 27 31 91 217 160 168 272 20 80 480 466 407 458 67 98 74 108 211 280 688 602
1160 734 660 644 952 962 767 654 567 407 568 685 332 356 257 328 109 81 25 15 7 1 0 34 25 11 9 0 0 0 0 0 0 0 0 0 0 0 0 0 0 0 0 0 0 0 0 0 0 0 0 0 0 0 0 0 0 0 0 0 0 0 0 0 3 1 6 16 14 6 5 1 12 67 453 415 358 279 257 622 321 106 91 240 427
Wind_Speed
27 29 30 32 29 29 30 29 29 28 28 28 29 30 30 31 31 31 31 30 28 27 27 26 27 26 26 26 25 25 25 25 23 23 15 14 14 14 15 15 14 13 13 13 14 15 16 16 15 12 11 11 12 11 10 9 10 11 12 17 20 19 17 16 15 14 13 12 10 8 6 5 5 5 6 6 5 nan nan 2 4 5 5 nan 6
29 30 30 31 30 29 29 28 28 28 28 28 29 29 30 31 31 32 31 30 29 27 26 26 26 26 26 27 26 26 25 23 22 21 17 15 12 15 15 16 15 13 12 12 13 14 15 16 14 12 11 11 12 11 9 10 10 13 16 16 18 19 19 16 15 15 14 11 10 10 8 7 7 6 6 6 6 6 7 8 5 5 6 7 6
31 30 31 33 31 29 29 28 29 28 28 28 29 29 30 31 31 32 32 31 29 27 26 25 26 27 27 27 27 26 24 22 21 20 17 16 11 15 15 15 15 14 12 11 10 12 14 15 15 13 12 12 12 12 10 9 11 15 16 18 21 23 21 19 18 16 14 14 12 10 10 8 7 7 7 8 8 8 12 13 11 6 nan 6 7
33 31 32 33 32 29 28 28 29 28 27 28 28 29 29 30 31 31 31 30 29 28 26 25 26 27 27 27 27 26 24 22 21 20 18 14 12 13 13 14 14 13 14 10 7 10 13 15 16 12 12 12 12 12 11 10 12 15 17 17 20 22 22 20 16 15 14 11 7 4 7 7 7 8 8 9 10 10 11 12 12 10 nan 8 7
34 33 34 32 31 30 29 29 29 29 28 29 29 29 29 30 30 30 30 29 27 27 26 26 26 27 28 28 27 26 24 22 20 18 16 14 11 13 12 12 14 14 13 11 9 11 13 14 15 12 12 12 12 12 12 12 13 14 15 18 19 20 20 18 16 13 11 8 4 8 10 10 10 9 9 10 11 10 10 10 9 9 nan 9 11
35 35 35 33 31 31 30 29 28 29 30 30 29 29 29 30 30 30 29 28 27 26 26 26 27 27 27 27 26 25 23 21 19 16 15 13 11 11 12 11 11 11 11 12 11 13 13 14 13 12 11 12 13 13 13 12 13 14 15 18 19 19 19 17 17 19 15 11 12 11 10 10 9 9 10 10 10 10 10 9 9 8 nan nan 11
37 36 36 34 31 32 30 30 30 30 31 31 29 29 28 28 29 29 29 28 27 26 26 26 26 27 26 26 25 24 22 20 18 16 15 14 12 11 12 13 12 13 13 13 12 11 12 14 14 12 12 12 14 14 13 12 13 14 17 18 18 18 19 18 16 16 9 8 12 12 11 11 10 10 9 11 11 11 10 10 9 8 nan nan 10
37 36 36 34 32 33 32 31 31 30 31 32 30 29 28 28 29 29 29 28 26 26 26 26 26 26 27 27 25 23 21 18 17 16 16 18 18 14 14 14 14 14 14 14 13 12 12 14 14 12 12 13 14 15 14 13 13 14 15 17 18 20 20 18 16 11 8 12 13 13 12 12 11 10 9 9 10 11 11 10 10 9 nan nan 8
37 37 38 36 35 37 31 31 31 30 30 32 31 29 28 27 28 29 29 28 27 26 26 26 26 26 26 26 24 22 20 18 16 15 14 15 17 17 16 15 15 15 15 15 15 13 12 14 14 13 13 13 14 16 16 15 15 15 16 17 19 20 19 19 15 9 8 13 13 13 12 11 11 11 11 13 12 11 11 10 10 nan nan nan nan
39 37 37 37 37 38 32 31 31 30 29 31 32 30 29 27 27 28 27 27 27 26 26 26 26 26 25 25 23 21 19 17 16 15 14 14 16 17 17 17 17 17 17 17 16 14 13 13 14 15 15 15 16 18 18 17 17 16 15 16 18 21 23 19 14 10 16 14 14 15 20 26 12 13 12 12 13 nan 18 22 20 14 11 nan nan
40 37 36 37 40 37 34 32 32 31 29 30 32 30 29 28 27 27 27 26 26 26 25 25 26 25 24 23 22 19 18 17 16 15 14 14 14 15 17 17 17 18 18 17 16 15 16 17 18 17 16 17 19 20 20 19 18 16 15 15 18 22 23 18 9 14 15 17 17 16 17 19 16 14 12 12 nan nan nan nan nan nan nan nan nan
40 38 36 37 40 36 35 33 31 30 29 30 30 29 28 27 27 27 26 25 26 26 25 24 24 24 23 22 21 19 18 17 16 15 14 15 15 14 16 18 18 19 18 18 17 16 18 22 21 18 18 19 19 20 21 20 20 17 16 17 19 20 19 16 15 18 16 16 17 16 14 15 17 15 13 14 13 nan 13 13 13 nan nan nan nan
40 37 36 35 36 36 34 33 32 30 29 30 30 29 27 26 26 26 24 24 24 25 25 24 24 23 22 22 21 19 18 17 17 16 17 17 17 17 17 18 19 20 19 19 18 21 22 23 21 19 18 20 21 20 21 21 19 17 15 15 17 19 15 13 16 16 18 19 17 15 17 18 18 15 13 13 13 13 nan nan nan nan nan nan nan
39 36 34 33 34 37 35 35 33 32 29 29 29 28 28 26 25 25 24 24 23 23 23 23 22 22 22 21 20 19 18 18 17 17 18 19 20 19 19 19 20 20 20 18 19 23 23 22 21 19 18 19 21 20 22 22 19 16 14 13 15 16 16 14 18 20 20 21 18 20 18 18 18 15 15 15 15 16 16 nan nan nan nan nan nan
38 36 34 34 35 35 38 35 33 31 29 28 29 28 27 25 24 25 24 23 23 23 22 22 22 22 22 21 21 20 20 19 19 19 19 20 21 20 18 19 20 20 20 19 18 21 21 21 19 19 18 17 18 21 22 22 19 16 14 13 11 13 10 17 19 21 20 21 22 18 18 20 19 16 18 18 18 nan nan nan nan nan nan nan nan
37 35 35 34 34 35 34 35 34 33 32 29 29 28 26 26 25 24 24 24 23 22 22 21 21 22 22 20 20 20 20 20 20 20 21 21 21 19 18 17 18 20 20 19 19 19 19 19 20 21 20 18 18 21 22 22 20 18 15 13 11 10 10 18 21 21 20 19 21 21 21 22 18 17 17 17 15 14 nan nan nan nan nan nan nan
35 35 34 34 34 33 33 34 34 35 33 30 27 25 26 27 23 24 25 24 23 22 22 21 20 21 21 21 21 20 20 20 20 20 22 22 21 19 17 15 17 19 19 19 19 19 19 19 21 22 21 19 19 21 23 23 21 20 16 13 11 10 13 16 21 21 21 23 21 21 21 19 17 18 17 17 16 nan nan nan nan nan nan nan nan
34 34 33 33 32 32 32 34 33 33 33 30 25 22 28 23 22 23 25 22 22 22 22 21 19 19 20 20 21 21 21 20 20 20 22 22 20 18 16 13 15 17 18 18 19 19 20 20 20 22 22 20 20 22 23 23 22 20 17 15 12 12 13 16 20 22 24 21 21 22 22 26 20 18 19 18 16 nan nan nan nan nan nan nan nan
33 32 32 31 31 30 31 31 31 32 34 31 29 28 30 25 23 26 24 21 20 19 20 19 20 19 19 19 20 21 21 21 21 21 21 22 20 17 14 12 13 15 17 18 19 20 20 22 22 23 24 24 23 23 23 24 23 21 18 15 15 13 13 12 18 21 24 20 23 21 26 25 19 19 20 18 17 nan nan nan nan nan nan nan nan
31 31 31 30 29 29 28 29 28 31 31 31 29 28 27 26 23 26 24 21 20 18 19 20 20 20 18 18 18 21 20 20 21 20 20 21 19 13 14 13 12 13 15 17 18 19 21 23 23 23 25 26 26 24 24 27 26 24 18 15 13 14 12 11 19 22 22 25 24 23 29 21 20 20 21 19 18 nan nan nan nan nan nan nan nan
27 29 28 29 29 29 28 27 29 29 29 31 29 27 27 27 23 26 22 21 21 21 21 21 20 20 17 20 17 16 18 16 18 17 18 18 17 16 14 14 13 13 14 15 17 19 22 23 23 24 26 27 26 25 25 26 28 26 21 15 14 11 13 14 19 21 22 25 21 27 26 21 19 21 21 20 nan nan nan nan nan nan nan nan nan
27 28 28 28 27 28 29 29 29 29 27 28 27 25 26 24 23 23 20 20 21 21 17 17 17 16 15 19 13 17 13 14 17 14 14 17 16 16 14 14 15 15 15 15 15 18 22 24 24 24 25 26 22 nan 20 23 27 26 22 16 12 15 15 15 18 20 23 24 23 29 23 20 19 20 20 21 21 nan nan nan nan nan nan nan nan
27 27 27 27 26 28 30 30 31 29 28 26 26 25 24 22 22 22 21 19 19 18 18 17 16 15 15 12 12 15 13 18 15 15 14 21 17 14 15 15 16 18 17 16 16 17 20 25 26 24 23 22 19 nan 18 20 24 24 20 16 17 16 15 15 16 21 21 27 26 28 24 19 19 20 21 21 21 nan nan nan nan nan nan nan nan
28 27 27 26 27 27 29 31 32 29 26 25 24 25 23 23 22 21 21 20 19 17 17 16 16 11 15 12 12 14 10 19 21 23 16 16 15 12 14 16 16 17 19 17 18 17 21 24 26 24 18 nan nan nan nan nan 23 25 24 22 20 18 15 15 15 20 22 24 27 28 23 21 20 20 21 21 21 nan nan nan nan nan nan nan nan
28 28 28 27 27 27 29 30 31 29 26 25 24 24 25 22 22 20 21 19 18 17 17 16 15 11 17 13 14 13 11 16 15 15 14 15 12 11 13 12 14 15 18 13 14 16 14 17 22 20 17 16 nan nan nan nan 23 26 28 25 22 19 16 16 17 18 21 24 29 27 23 22 21 20 21 21 21 21 nan nan nan nan nan nan nan
29 28 28 28 27 27 28 28 29 28 25 23 23 26 24 24 23 22 21 21 20 17 18 17 14 13 12 15 17 14 11 18 12 11 12 13 13 12 13 14 14 15 17 14 15 16 14 16 19 21 20 18 19 nan nan nan 23 nan 28 27 23 20 17 16 16 17 20 22 27 26 24 22 23 21 21 21 21 nan nan nan nan nan nan nan nan
28 29 29 28 26 25 27 27 26 27 24 22 23 23 24 24 22 21 20 20 20 19 16 16 15 16 14 15 17 15 13 13 13 12 12 13 13 13 13 14 14 14 17 16 16 16 15 16 19 22 23 21 21 nan nan nan nan nan 29 27 25 21 19 16 16 16 19 20 26 25 23 23 23 21 21 22 22 21 nan nan nan nan nan nan nan
28 31 30 28 25 24 25 26 25 24 22 20 22 24 24 23 23 21 19 22 20 18 16 17 17 16 14 17 14 16 15 13 13 13 12 14 14 13 13 13 13 14 17 16 18 16 16 17 18 22 23 23 nan nan nan nan nan nan 30 28 26 23 20 18 17 17 17 18 22 23 22 22 23 23 21 22 23 22 nan nan nan nan nan nan nan
31 31 29 27 24 23 24 24 22 20 20 19 21 23 24 23 22 20 21 23 20 19 19 17 15 16 17 18 16 18 16 15 14 14 15 17 17 15 14 14 15 14 16 15 16 19 17 16 18 20 23 nan nan nan nan nan nan nan nan 29 27 25 22 19 18 17 16 19 19 23 21 22 23 23 23 22 23 24 23 nan nan nan nan nan nan
33 32 29 27 23 23 22 23 20 19 21 20 22 23 23 22 22 22 23 21 21 22 20 19 17 17 22 18 15 16 17 17 15 17 19 19 17 16 15 16 15 15 16 15 17 17 17 17 18 19 nan nan nan nan nan nan nan nan nan nan 28 25 24 21 18 17 17 17 19 24 20 22 21 22 22 24 21 24 23 22 nan nan nan nan nan
33 31 29 26 23 21 23 21 22 20 20 20 22 24 24 22 22 22 23 21 23 22 21 20 20 19 21 22 26 26 25 21 19 22 23 20 18 18 17 16 14 15 16 16 11 13 15 20 21 18 nan nan nan nan nan nan nan nan nan nan nan 27 26 24 22 19 18 18 18 20 21 21 20 20 21 22 24 23 23 22 23 nan nan nan nan
30 28 25 25 23 21 22 21 22 19 17 19 21 22 23 23 23 23 23 24 24 23 23 21 21 22 25 28 24 25 27 21 20 22 22 22 18 17 17 16 15 14 15 15 14 13 15 19 nan 19 22 nan nan nan nan nan nan nan nan nan nan 29 27 26 23 21 20 19 19 19 20 20 19 19 19 20 21 24 22 21 21 19 nan nan nan
26 26 25 25 24 23 23 22 21 20 17 19 21 22 23 23 24 23 24 24 24 23 23 23 24 25 25 29 29 30 29 24 22 22 22 21 19 17 17 17 16 16 14 12 11 15 16 17 15 nan nan 18 nan nan nan nan 23 24 nan nan nan nan nan 27 25 24 23 21 19 19 19 20 19 17 18 19 19 21 22 20 19 18 19 20 nan
26 25 27 27 26 25 24 23 21 20 20 21 22 21 24 25 24 25 25 24 23 23 24 24 24 24 26 27 30 30 28 27 24 23 22 22 20 19 20 19 17 18 15 15 15 15 15 15 16 18 nan nan nan 20 21 22 23 26 28 nan nan nan nan nan 27 25 23 22 21 20 19 19 19 20 19 18 18 18 19 20 17 17 19 19 nan
27 28 28 29 28 26 26 24 22 22 22 22 21 23 25 24 25 25 26 25 25 24 25 23 24 22 23 24 26 28 25 24 23 23 21 20 20 20 20 19 18 18 17 16 15 16 16 16 17 17 19 18 nan 20 20 22 24 27 29 30 32 nan nan nan nan nan 24 24 23 21 20 20 20 20 20 20 19 17 18 19 18 17 17 18 18
28 30 30 29 28 27 25 25 24 23 22 22 23 24 26 25 27 27 27 26 26 25 25 25 25 27 27 28 28 29 27 26 23 22 22 21 20 20 19 18 18 19 20 18 17 17 17 17 16 16 19 nan 18 19 nan 21 22 26 29 31 32 33 33 nan nan nan nan 26 24 22 21 20 20 20 20 21 21 19 17 18 17 17 17 16 18
30 30 30 30 29 28 25 24 24 24 23 24 23 24 26 26 27 28 29 27 27 27 28 26 28 28 28 29 30 30 29 27 25 22 20 20 21 21 20 18 20 20 20 19 19 18 17 17 18 17 17 17 nan nan 19 20 21 22 25 29 32 32 32 33 32 nan nan nan 27 25 24 22 22 21 20 20 20 21 19 16 16 16 16 16 15
31 30 30 30 30 28 26 24 23 24 25 25 25 25 26 27 27 29 29 29 29 29 29 30 30 29 29 30 30 30 31 29 27 25 22 21 22 22 20 21 22 21 20 19 19 19 17 16 18 18 17 16 17 17 nan 19 20 nan nan 24 28 30 31 32 34 nan nan nan nan nan 25 24 24 22 22 21 21 21 22 18 15 15 14 15 13
31 31 32 31 31 30 27 25 23 24 26 27 29 29 29 28 30 29 30 30 30 31 31 31 32 32 33 32 31 31 30 30 29 27 24 23 23 23 23 22 23 22 22 21 21 19 18 18 17 19 17 16 16 15 17 20 20 22 22 23 25 27 30 32 33 33 32 nan nan nan nan 27 26 25 23 22 22 21 20 20 18 17 15 13 13
31 31 32 32 32 31 28 27 24 23 25 27 29 29 29 29 30 30 nan nan 32 33 33 33 33 nan 34 32 32 29 31 30 29 28 26 25 24 24 24 22 22 22 21 21 22 22 20 18 17 19 18 18 18 18 19 20 22 23 24 24 23 25 26 29 29 29 31 31 nan nan nan nan nan 26 25 25 24 22 21 20 20 19 17 17 13
31 32 33 33 32 30 29 28 26 25 23 24 25 27 28 30 30 nan nan nan nan 35 35 35 nan nan 34 nan nan nan nan nan nan nan nan nan 25 26 25 25 23 22 22 21 22 22 22 20 19 21 18 19 21 21 20 19 21 23 23 23 27 26 26 29 29 28 30 33 33 33 nan nan nan nan 29 28 25 23 22 21 21 20 19 20 17
30 32 33 35 33 30 29 28 27 26 23 22 24 25 26 nan nan nan nan nan nan nan nan 35 nan nan nan nan nan nan nan nan nan nan nan 28 27 27 27 26 25 25 24 26 25 25 25 24 23 22 22 20 22 23 23 23 20 20 24 25 28 33 33 29 31 31 30 nan 32 33 34 34 nan nan nan 30 27 25 24 23 22 21 20 19 19
30 31 32 35 34 31 29 28 26 26 24 23 24 25 nan 27 nan nan nan nan 33 nan nan nan nan nan nan nan nan nan nan nan nan nan nan 29 nan nan nan 27 27 27 27 27 27 27 27 26 24 24 26 26 25 25 23 23 23 23 25 24 23 29 31 34 33 35 36 33 33 33 35 nan nan nan nan 33 31 29 26 25 24 23 22 21 21
28 29 31 34 33 31 30 29 27 25 25 25 23 26 27 28 29 29 30 nan nan 32 32 nan nan nan nan nan nan nan nan nan nan nan nan nan nan nan nan nan nan nan 27 28 28 29 29 28 27 26 27 28 29 27 26 24 23 25 21 18 20 20 29 29 31 36 40 38 37 36 37 37 37 nan nan 36 34 32 30 28 26 26 25 24 24
27 29 32 34 33 32 31 29 27 26 25 26 25 27 28 27 27 28 29 29 29 nan nan nan nan nan nan nan nan nan nan nan nan nan nan nan nan nan nan nan nan nan nan nan nan nan nan 29 29 27 27 29 31 30 30 29 25 24 20 21 19 16 19 26 30 31 37 39 40 37 38 40 39 39 39 37 36 34 33 31 30 29 27 27 26
27 29 33 35 35 33 33 30 26 26 26 26 25 25 nan 25 nan nan nan nan nan nan nan nan nan nan nan nan nan nan nan nan nan nan nan nan nan nan nan nan nan nan nan nan nan nan nan nan nan nan 29 28 30 32 34 34 33 29 25 23 21 19 19 21 24 26 32 39 42 39 44 46 47 43 42 40 39 38 35 35 33 31 31 29 28
28 31 34 36 35 35 35 32 27 26 25 25 25 nan nan nan nan nan nan nan nan nan nan nan nan nan nan nan nan nan nan nan nan nan nan nan nan nan nan nan nan nan nan nan nan nan nan nan nan nan nan nan 29 32 34 35 34 33 30 29 28 23 20 19 21 25 24 30 30 30 43 42 42 46 45 44 42 42 41 40 38 35 33 33 31
31 33 36 38 37 36 35 33 28 26 25 24 24 nan nan nan nan nan nan nan nan nan nan nan nan nan nan nan nan nan nan nan nan nan nan nan nan nan nan nan nan nan nan nan nan nan nan nan nan nan nan nan nan nan nan nan nan 33 nan 31 29 24 22 22 23 21 23 26 26 29 37 36 33 37 42 42 44 45 43 41 39 38 38 36 36
33 34 37 39 38 36 33 30 28 26 25 25 24 21 nan nan nan nan nan nan nan nan nan nan nan nan nan nan nan nan nan nan nan nan nan nan nan nan nan nan nan nan nan nan nan nan nan nan nan nan nan nan nan nan nan nan nan nan nan nan nan nan 28 27 25 20 19 23 26 28 33 33 36 34 38 42 42 40 43 44 42 41 39 39 39
33 34 37 39 37 34 30 27 26 24 24 26 23 21 19 19 nan nan nan nan nan nan nan nan nan nan nan nan nan nan nan nan nan nan nan nan nan nan nan nan nan nan nan nan nan nan nan nan nan nan nan nan nan nan nan nan nan nan nan nan nan nan nan nan nan nan nan 18 20 24 27 nan nan 36 39 36 36 nan nan nan 38 39 39 37 38
34 35 35 35 32 29 26 25 25 24 25 26 24 22 20 18 18 nan nan nan nan nan nan nan nan nan nan nan nan nan nan nan nan nan nan nan nan nan nan nan nan nan nan nan nan nan nan nan nan nan nan nan nan nan nan nan nan nan nan nan nan nan nan nan nan nan nan nan nan nan nan nan nan nan 34 32 33 33 33 34 35 36 nan 36 38
Wind_Direction
278 279 282 283 284 284 281 282 283 285 286 287 288 289 292 294 295 296 296 294 294 294 295 297 301 302 302 299 300 300 301 302 298 295 298 278 275 272 275 267 272 276 281 292 289 288 290 296 301 292 282 275 272 273 281 288 266 243 226 224 219 214 218 219 222 228 232 230 228 231 239 245 248 251 251 248 238 nan nan 177 178 167 166 nan 232
282 282 281 283 282 280 280 282 283 283 285 287 287 287 290 293 295 296 297 296 297 296 296 297 299 297 298 298 297 300 300 297 290 288 281 280 269 260 263 265 255 253 275 291 290 286 290 295 298 288 275 269 269 268 278 286 265 240 225 224 225 218 219 217 221 225 228 227 221 216 219 224 232 240 237 231 223 204 176 163 169 179 174 203 216
277 279 280 283 283 282 283 283 283 284 286 287 287 288 290 293 295 295 297 299 299 299 299 299 299 300 299 300 298 297 297 294 289 285 279 266 253 266 260 263 260 259 264 267 286 287 291 294 294 286 274 268 266 268 274 277 260 241 226 223 220 216 216 216 217 221 225 228 221 216 221 221 223 231 231 229 214 200 193 197 202 204 nan 232 209
279 277 278 280 284 284 284 284 283 285 287 286 286 289 290 292 294 295 297 298 300 299 299 298 298 299 299 299 299 300 299 296 293 292 288 291 297 273 268 263 267 264 267 276 295 296 289 292 295 288 272 262 263 268 273 272 246 238 229 227 221 218 216 216 218 221 223 230 237 223 192 200 208 221 225 219 220 216 205 205 209 223 nan 236 240
277 277 278 282 287 286 284 285 286 287 287 285 286 290 292 293 294 295 295 295 295 295 296 296 297 298 299 300 301 300 299 297 296 295 292 286 282 277 273 272 273 277 288 312 305 290 289 290 295 290 271 259 260 263 270 265 249 237 234 231 226 220 217 217 215 224 229 217 188 126 192 199 196 208 213 221 222 218 217 219 221 219 nan 226 227
277 278 279 282 285 289 286 286 287 289 288 287 289 292 294 295 296 295 295 295 294 294 296 296 296 297 299 300 300 299 297 299 299 295 289 281 275 284 292 284 278 280 284 285 289 294 291 290 295 290 273 260 257 260 266 265 259 247 239 232 227 221 218 216 216 208 201 176 134 159 188 197 198 196 209 217 219 216 216 219 220 223 nan nan 234
275 277 280 282 284 288 288 287 287 288 289 290 292 294 295 295 295 295 296 295 294 295 295 296 296 296 297 297 296 295 295 297 297 286 265 251 256 264 275 280 274 268 266 268 271 279 285 292 294 291 274 260 255 257 260 266 269 254 241 232 226 221 219 215 213 214 198 140 188 188 183 192 197 194 213 209 211 211 212 211 210 209 nan nan 221
273 277 278 283 286 289 288 286 286 288 290 292 293 295 296 297 298 299 298 296 295 295 295 295 295 295 295 293 294 293 291 292 288 276 266 254 240 251 266 273 273 269 266 265 268 270 280 285 296 293 277 258 252 255 257 261 265 252 238 230 221 219 217 217 218 208 180 164 192 181 185 194 195 194 211 212 214 213 210 211 211 212 nan nan 251
274 277 282 281 285 293 289 286 287 289 292 293 293 294 294 296 299 301 299 296 296 296 295 295 294 293 292 292 292 290 288 286 282 278 270 260 252 244 253 260 262 261 259 257 258 251 270 285 294 294 277 261 251 255 257 261 261 248 235 227 221 220 218 217 215 189 165 194 187 188 186 194 194 198 205 208 209 210 214 212 210 nan nan nan nan
273 276 280 285 289 291 290 289 289 291 293 293 293 294 294 298 301 301 298 296 295 294 293 292 291 290 289 290 289 287 283 282 282 282 280 273 260 254 253 263 268 268 263 259 255 249 254 262 284 284 275 263 252 252 252 254 257 253 238 230 226 219 215 213 210 164 188 198 202 186 184 167 198 195 202 204 196 nan 188 194 195 198 204 nan nan
274 276 279 285 290 288 289 289 290 293 294 293 292 292 295 299 301 299 296 295 293 292 289 289 289 289 290 289 286 281 277 273 275 277 276 276 268 261 261 266 269 270 268 262 257 253 251 256 270 280 276 267 254 248 247 246 249 248 236 229 225 224 216 209 173 197 198 203 205 202 196 173 197 196 200 205 nan nan nan nan nan nan nan nan nan
273 275 278 282 285 286 287 288 291 292 293 293 291 292 294 297 299 296 296 294 293 291 289 287 287 290 290 287 282 276 273 274 275 275 275 276 278 275 271 267 266 267 265 260 254 251 250 264 272 281 279 271 258 246 240 240 242 243 232 225 224 224 219 202 171 205 197 204 216 203 191 193 201 201 204 205 209 nan 209 208 205 nan nan nan nan
275 278 279 283 288 286 288 288 290 292 291 292 293 294 294 295 295 294 292 291 290 290 288 287 288 287 286 284 279 273 273 274 275 275 276 278 284 286 280 268 262 264 264 259 251 245 257 264 271 280 280 273 261 243 237 234 234 238 234 226 223 221 212 197 194 204 205 207 208 205 200 194 199 204 202 205 208 209 nan nan nan nan nan nan nan
278 278 280 283 285 290 288 288 288 291 292 292 293 293 295 295 294 290 289 291 289 287 286 285 285 284 281 280 278 272 273 275 275 276 275 277 283 287 283 271 259 260 266 262 253 250 254 262 268 275 277 270 263 248 236 231 230 231 231 228 228 223 206 197 183 211 206 209 202 206 201 198 199 200 204 201 203 207 210 nan nan nan nan nan nan
280 281 283 284 288 292 292 291 289 292 294 292 291 291 292 291 288 286 289 290 287 283 285 286 283 281 279 277 276 271 271 276 277 278 280 280 284 287 287 275 260 256 262 262 256 253 255 259 262 266 267 263 258 248 237 232 229 227 228 221 225 224 211 209 211 219 213 206 209 199 206 205 203 188 208 208 205 nan nan nan nan nan nan nan nan
280 282 284 287 289 290 293 294 294 293 289 287 286 287 289 286 284 289 289 284 282 283 282 282 281 278 276 274 274 272 274 276 279 281 283 283 284 290 287 276 260 253 256 257 254 251 251 256 254 254 259 256 250 244 237 230 224 225 222 220 215 221 206 176 211 217 219 215 213 205 205 212 197 207 208 212 213 213 nan nan nan nan nan nan nan
282 285 286 287 289 289 290 294 292 293 286 280 278 285 284 285 288 292 284 281 287 287 284 280 279 278 276 275 276 275 274 278 281 284 287 286 287 287 286 276 258 252 256 261 262 255 249 254 256 257 256 250 246 244 238 227 221 222 223 214 219 231 193 190 208 213 220 217 212 212 212 217 205 211 212 211 213 nan nan nan nan nan nan nan nan
285 286 287 288 288 288 288 288 292 291 288 282 277 286 276 282 290 281 278 279 283 283 285 282 282 278 272 273 276 276 277 279 282 284 286 284 280 282 284 275 259 254 259 264 266 262 254 252 256 257 255 250 246 243 235 225 219 218 223 223 230 235 211 194 210 213 219 214 217 214 215 225 221 213 216 217 213 nan nan nan nan nan nan nan nan
284 286 287 288 288 288 289 289 290 290 289 287 288 284 285 289 282 275 272 271 269 279 281 278 279 276 277 277 277 276 278 281 282 285 285 279 280 282 273 270 261 257 262 264 266 267 262 253 252 253 253 248 242 237 229 223 215 215 226 232 238 237 223 206 214 218 220 210 216 219 225 226 215 220 221 221 219 nan nan nan nan nan nan nan nan
283 284 285 285 286 288 288 288 288 286 286 284 288 291 292 289 287 277 276 269 258 260 261 260 268 273 274 275 269 276 278 281 283 284 282 278 282 284 268 265 262 262 262 265 265 264 261 255 250 249 250 247 243 236 226 218 212 213 220 237 243 245 225 203 219 218 217 218 210 220 235 222 224 226 222 224 224 nan nan nan nan nan nan nan nan
281 283 283 283 284 286 288 287 286 285 284 283 285 286 288 289 286 278 277 272 265 259 257 261 262 271 270 269 267 279 276 276 279 284 284 284 281 265 270 257 257 259 260 263 263 263 261 258 253 248 249 250 244 240 229 220 216 212 218 236 250 227 224 219 224 220 213 222 213 226 234 224 228 229 228 228 nan nan nan nan nan nan nan nan nan
287 286 285 284 283 284 287 286 285 286 283 281 279 281 283 288 289 283 281 277 274 275 274 271 274 267 266 270 273 266 261 267 279 272 279 278 273 267 265 258 251 255 253 256 259 261 262 260 257 252 249 253 254 nan 241 233 225 217 218 236 231 217 219 223 220 220 219 222 215 233 230 222 226 233 236 234 234 nan nan nan nan nan nan nan nan
288 288 289 291 287 285 285 286 286 285 284 279 278 278 281 278 282 281 275 273 275 276 276 279 274 272 272 263 273 278 294 292 285 279 257 260 250 264 266 259 252 252 257 257 260 260 259 258 259 256 249 251 249 nan 223 226 224 229 227 224 215 219 219 221 222 221 217 219 221 239 229 220 223 232 236 239 239 nan nan nan nan nan nan nan nan
292 293 293 291 290 289 287 284 285 285 282 276 273 272 271 270 267 270 268 270 271 272 274 276 276 276 288 285 265 265 269 260 251 273 264 279 270 268 262 264 259 255 262 264 267 265 263 259 256 259 254 nan nan nan nan nan 214 214 216 214 217 220 217 220 217 223 217 220 226 240 230 221 217 227 232 236 239 nan nan nan nan nan nan nan nan
293 293 294 294 295 292 286 284 283 282 279 273 271 268 270 267 265 264 265 265 266 268 268 268 273 281 273 266 273 261 256 260 268 269 264 273 286 285 278 268 261 259 268 254 262 263 256 248 248 255 248 243 nan nan nan nan 213 210 212 214 216 219 217 217 215 219 222 221 230 237 231 222 219 224 229 233 235 240 nan nan nan nan nan nan nan
293 297 300 300 298 293 288 282 280 279 274 270 267 261 258 255 255 255 258 260 262 264 268 262 268 265 257 270 271 269 253 267 272 273 288 289 284 279 273 266 260 256 261 250 250 250 245 240 238 240 243 242 242 nan nan nan 216 nan 211 216 215 219 218 218 218 214 221 222 236 239 230 222 220 225 228 232 233 nan nan nan nan nan nan nan nan
298 298 300 299 297 290 287 283 279 275 274 269 263 259 255 254 250 251 256 256 257 259 259 274 270 266 267 265 268 271 267 267 274 278 278 279 279 273 270 268 266 260 256 249 248 248 240 237 234 236 242 244 245 nan nan nan nan nan 210 214 214 218 219 220 219 217 221 221 238 245 231 221 220 221 227 232 234 232 nan nan nan nan nan nan nan
302 300 299 298 295 290 285 285 279 275 270 266 261 253 250 250 250 250 249 252 252 255 253 255 259 267 269 260 261 268 269 268 270 277 276 270 269 269 269 270 270 264 258 250 251 248 246 241 237 236 244 248 nan nan nan nan nan nan 209 211 215 217 218 219 218 219 224 221 236 245 237 224 218 213 223 230 236 237 nan nan nan nan nan nan nan
301 299 296 295 295 285 284 284 280 277 268 260 256 253 250 249 250 250 250 253 255 253 251 254 255 264 257 256 258 262 265 265 267 271 268 265 265 269 271 269 255 256 260 262 258 254 247 245 244 239 243 nan nan nan nan nan nan nan nan 212 212 216 218 219 219 222 223 227 221 246 247 234 221 218 214 228 236 239 241 nan nan nan nan nan nan
301 298 294 292 287 284 284 285 281 273 264 255 251 247 245 247 248 247 247 253 251 251 254 253 254 251 262 267 269 268 266 256 262 262 259 265 269 271 270 272 274 265 253 249 253 255 254 249 247 246 nan nan nan nan nan nan nan nan nan nan 217 214 220 220 221 222 228 228 226 243 253 242 228 223 219 215 231 242 246 244 nan nan nan nan nan
299 298 293 288 282 278 279 282 279 265 260 255 246 243 240 238 242 245 246 244 249 250 251 253 258 251 256 261 253 248 248 249 254 257 256 261 264 268 274 274 277 275 269 263 255 268 257 245 236 239 nan nan nan nan nan nan nan nan nan nan nan 217 219 218 218 222 223 227 230 232 250 250 241 232 223 222 215 228 248 247 252 nan nan nan nan
300 297 290 284 282 278 277 276 273 269 259 255 249 244 240 239 239 239 242 246 248 251 253 254 255 263 262 258 263 264 265 263 259 260 263 265 269 274 274 278 278 276 279 285 293 277 267 260 nan 233 228 nan nan nan nan nan nan nan nan nan nan 219 220 221 217 220 220 222 223 230 234 245 250 242 236 226 222 221 228 248 252 251 nan nan nan
293 295 287 283 282 278 273 272 270 268 261 252 247 241 239 240 241 240 243 247 250 253 256 258 257 259 259 266 262 263 268 270 269 268 268 271 275 276 275 278 281 284 284 278 276 277 275 275 265 nan nan 241 nan nan nan nan 219 219 nan nan nan nan nan 222 220 216 219 220 223 225 230 236 243 255 248 239 232 224 227 236 249 249 250 249 nan
288 286 284 282 277 272 270 270 269 268 260 254 248 244 240 239 239 240 242 243 245 250 256 257 260 260 261 258 267 267 266 267 273 272 271 274 276 275 275 277 284 291 291 289 280 284 286 285 279 271 nan nan nan 251 249 243 230 224 221 nan nan nan nan nan 222 220 221 219 220 224 226 232 235 242 245 253 243 236 232 230 242 246 249 250 nan
281 281 282 282 278 274 272 271 272 266 260 255 253 248 243 239 240 241 243 244 248 251 255 257 264 269 269 268 267 271 273 275 274 272 275 275 276 274 276 281 285 285 286 287 290 291 286 284 280 278 272 265 nan 259 255 249 243 235 224 219 223 nan nan nan nan nan 223 223 220 221 224 226 230 231 238 242 251 247 242 240 235 239 247 251 253
281 280 279 280 279 276 274 274 275 271 266 261 255 250 248 242 242 242 245 246 248 252 254 257 259 260 261 265 268 271 273 275 274 276 275 274 270 272 273 276 282 281 281 284 286 284 283 279 276 273 272 nan 266 263 nan 256 251 246 233 223 221 225 227 nan nan nan nan 224 226 223 225 228 231 230 230 232 240 251 257 249 242 239 243 248 252
279 282 282 281 280 280 278 275 275 275 272 267 263 256 251 248 246 247 249 251 253 253 258 259 259 259 259 262 266 266 269 272 274 276 275 276 272 268 271 274 270 271 276 280 282 278 278 280 276 274 271 271 nan nan 260 257 255 252 244 231 225 223 225 230 230 nan nan nan 224 226 226 225 230 232 231 231 232 238 267 261 256 249 246 249 253
277 282 281 281 282 282 281 276 271 271 270 271 268 263 259 256 253 252 252 253 253 255 257 258 260 262 262 261 262 264 265 269 271 272 272 271 271 271 269 268 270 271 272 276 274 277 276 275 275 273 272 268 266 266 nan 252 249 nan nan 245 233 227 225 226 230 nan nan nan nan nan 230 230 230 233 232 233 232 234 243 263 266 261 256 253 256
276 282 282 282 282 283 282 280 273 267 266 268 269 265 263 258 256 257 258 257 258 258 258 261 259 259 260 260 258 260 262 265 268 271 270 270 269 268 264 263 267 269 270 269 272 273 272 274 271 270 265 264 264 263 258 248 239 239 243 246 242 236 230 227 230 233 234 nan nan nan nan 234 231 232 233 233 236 236 238 244 251 250 255 269 261
279 282 284 284 284 284 284 280 276 270 265 264 265 265 264 262 261 260 nan nan 260 261 260 260 261 nan 261 261 261 261 264 265 266 267 268 267 267 267 269 269 269 270 270 269 263 262 269 268 271 269 266 264 262 261 260 256 245 239 232 234 239 243 241 235 230 233 236 237 nan nan nan nan nan 237 236 233 235 236 239 240 242 244 242 273 284
282 284 287 288 288 288 287 286 281 277 272 270 267 265 264 262 261 nan nan nan nan 262 260 259 nan nan 259 nan nan nan nan nan nan nan nan nan 266 265 267 267 269 270 269 265 265 265 262 259 264 266 267 268 263 260 261 259 250 243 244 237 231 227 239 243 236 233 234 235 235 234 nan nan nan nan 236 235 235 236 238 240 241 238 240 242 266
286 288 291 290 290 290 288 284 281 281 280 277 273 268 264 nan nan nan nan nan nan nan nan 263 nan nan nan nan nan nan nan nan nan nan nan 270 268 268 266 266 264 265 265 267 266 264 264 262 260 263 259 254 258 267 263 265 259 250 246 244 239 235 220 229 240 237 236 nan 236 235 236 236 nan nan nan 239 237 236 236 239 240 240 241 240 247
291 293 292 291 291 291 289 285 283 284 282 280 277 275 nan 262 nan nan nan nan 256 nan nan nan nan nan nan nan nan nan nan nan nan nan nan 270 nan nan nan 263 262 262 263 263 262 261 260 261 261 257 262 259 258 257 265 264 261 259 251 247 242 233 234 224 226 238 238 236 235 235 235 nan nan nan nan 240 238 236 235 236 239 241 242 242 238
290 292 292 293 290 292 291 289 288 286 283 281 279 275 272 270 264 266 261 nan nan 263 262 nan nan nan nan nan nan nan nan nan nan nan nan nan nan nan nan nan nan nan 256 256 254 258 261 257 254 254 256 263 261 259 252 257 259 266 262 258 245 241 235 229 228 233 235 236 237 237 237 234 232 nan nan 239 239 236 236 235 236 238 240 239 239
294 296 295 293 289 296 295 295 293 290 285 283 282 277 276 276 272 270 268 265 266 nan nan nan nan nan nan nan nan nan nan nan nan nan nan nan nan nan nan nan nan nan nan nan nan nan nan 256 257 254 248 247 259 257 259 254 257 260 258 263 254 245 246 242 237 231 233 233 235 238 244 237 235 234 236 237 237 238 237 236 236 236 238 241 241
297 298 296 294 295 297 297 300 296 291 288 288 286 282 nan 280 nan nan nan nan nan nan nan nan nan nan nan nan nan nan nan nan nan nan nan nan nan nan nan nan nan nan nan nan nan nan nan nan nan nan 255 252 249 255 256 258 258 257 258 260 256 250 252 245 241 237 241 238 230 226 236 237 235 234 233 235 237 237 238 238 240 241 241 241 241
299 295 294 295 298 298 300 304 301 293 291 291 291 nan nan nan nan nan nan nan nan nan nan nan nan nan nan nan nan nan nan nan nan nan nan nan nan nan nan nan nan nan nan nan nan nan nan nan nan nan nan nan 252 253 254 259 262 259 254 256 256 250 245 240 234 236 242 242 230 229 236 231 230 231 229 231 237 241 241 239 239 241 241 243 243
294 294 294 294 299 300 302 305 301 297 294 294 297 nan nan nan nan nan nan nan nan nan nan nan nan nan nan nan nan nan nan nan nan nan nan nan nan nan nan nan nan nan nan nan nan nan nan nan nan nan nan nan nan nan nan nan nan 258 nan 254 261 261 254 245 236 229 233 237 233 227 237 234 229 234 231 231 233 236 239 240 241 244 246 246 248
293 293 293 292 295 298 300 302 300 299 298 301 300 300 nan nan nan nan nan nan nan nan nan nan nan nan nan nan nan nan nan nan nan nan nan nan nan nan nan nan nan nan nan nan nan nan nan nan nan nan nan nan nan nan nan nan nan nan nan nan nan nan 261 261 249 246 236 232 233 236 236 229 226 235 236 232 231 234 235 236 237 238 238 246 248
288 287 287 288 293 295 299 303 303 301 300 303 303 303 301 292 nan nan nan nan nan nan nan nan nan nan nan nan nan nan nan nan nan nan nan nan nan nan nan nan nan nan nan nan nan nan nan nan nan nan nan nan nan nan nan nan nan nan nan nan nan nan nan nan nan nan nan 245 234 233 234 nan nan 235 236 234 237 nan nan nan 240 242 243 243 249
282 286 286 290 293 295 301 307 308 304 304 305 306 305 302 296 292 nan nan nan nan nan nan nan nan nan nan nan nan nan nan nan nan nan nan nan nan nan nan nan nan nan nan nan nan nan nan nan nan nan nan nan nan nan nan nan nan nan nan nan nan nan nan nan nan nan nan nan nan nan nan nan nan nan 240 241 238 238 241 242 242 247 nan 246 246